Home > Weather > Uyo > Past weeks

Flag for Nigeria Weather for the Past 2 Weeks in Uyo, Nigeria

Now
79 °F

Thunderstorms. Passing clouds.


Feels Like: 82 °F
Forecast: 78 / 91 °F
Wind: 6 mph from Southwest

Location: Malabo/Fernando Poo

Current Time: May 1, 2016 at 12:10:57 AM

Latest Report: Apr 30, 2016 at 11:00 PM


Visibility: N/A

Pressure: 29.83 "Hg

Humidity: 89%

Dew Point: 75 °F

Location of UyoLocation

Historic Weather in Uyo — Graph

°F

Uyo Temperature Yesterday

Maximum temperature yesterday: 91 °F (at 11:00 AM)
Minimum temperature yesterday: 77 °F (at 4:00 AM)
Average temperature yesterday: 84 °F

High & Low Weather Summary for the Past Weeks

 TemperatureHumidityPressure
High91 °F (Apr 30, 11:00 AM)94% (Apr 16, 2:00 AM)29.98 "Hg (Apr 16, 2:00 AM)
Low72 °F (Apr 18, 4:00 AM)59% (Apr 27, 11:00 AM)29.59 "Hg (Apr 17, 3:00 PM)
Average83 °F81%29.84 "Hg
* Reported Apr 15 10:00 PM — Apr 30 10:00 PM, Uyo, Weather by CustomWeather, © 2016

Note: Actual official high and low records may vary slightly from our data, if they occured in-between our weather recording intervals... More about our weather records

Advertising

Uyo Weather History for the Previous 24 Hours

Scroll right to see more
 ConditionsComfort  
Time TempWeatherWind HumidityBarometerVisibility
10:00 PM
Sat, Apr 30
81 °FPassing clouds.5 mph89%29.86 "HgN/A
9:00 PM81 °FPassing clouds.5 mph89%29.86 "HgN/A
8:00 PM82 °FPassing clouds.5 mph84%29.83 "HgN/A
7:00 PM82 °FPassing clouds.6 mph84%29.77 "HgN/A
6:00 PM86 °FPassing clouds.9 mph75%29.77 "HgN/A
5:00 PM88 °FPassing clouds.10 mph70%29.77 "HgN/A
4:00 PM90 °FPassing clouds.10 mph71%29.77 "HgN/A
3:00 PM90 °FPassing clouds.9 mph71%29.80 "HgN/A
2:00 PM90 °FPassing clouds.8 mph67%29.80 "HgN/A
1:00 PM90 °FPassing clouds.6 mph67%29.83 "HgN/A
12:00 PM90 °FPassing clouds.7 mph67%29.86 "HgN/A
11:00 AM91 °FPassing clouds.8 mph63%29.89 "HgN/A
10:00 AM90 °FScattered clouds.8 mph67%29.89 "HgN/A
6:00 AM77 °FThunderstorms. Passing clouds.3 mph94%29.83 "HgN/A
5:00 AM77 °FThunderstorms. Passing clouds.3 mph94%29.83 "HgN/A
4:00 AM77 °FThunderstorms. Passing clouds.5 mph94%29.80 "HgN/A
3:00 AM79 °FThunderstorms. Passing clouds.2 mph89%29.80 "HgN/A
2:00 AM79 °FThunderstorms. Passing clouds.No wind89%29.83 "HgN/A
1:00 AM79 °FThunderstorms. Passing clouds.No wind89%29.86 "HgN/A
12:00 AM79 °FPassing clouds.2 mph89%29.86 "HgN/A
Weather by CustomWeather, © 2016

See weather overviewHow to use our weather pages